AIZ1160 LCLK-LLBG

Flight info

Callsign AIZ1160
Flight time N/A
Altitude 26000
Route EMEDA DCT TUZIB L189 ZUKKO
Aircraft A21N/M-SDE2E3FGHIRWXY/LB1

Departure

Time 2026-04-29 17:35
Airport Larnaca International Airport (LCLK)

Arrival

Time N/A
Airport Ben Gurion International Airport (LLBG)
Time Latitude Longitude Altitude Speed Heading
2026-04-29 17:17 34.86630 33.60853 24 ft 0 kts 225°
2026-04-29 17:17 34.86630 33.60854 24 ft 0 kts 225°
2026-04-29 17:27 34.86645 33.60871 24 ft 4 kts 215°
2026-04-29 17:27 34.86668 33.60886 25 ft 4 kts 193°
2026-04-29 17:27 34.86694 33.60887 27 ft 4 kts 159°
2026-04-29 17:28 34.86707 33.60879 26 ft 1 kts 135°
2026-04-29 17:30 34.86705 33.60881 26 ft 1 kts 135°
2026-04-29 17:30 34.86658 33.60944 24 ft 14 kts 121°
2026-04-29 17:31 34.86709 33.61078 25 ft 32 kts 46°
2026-04-29 17:31 34.86821 33.61217 27 ft 36 kts 45°
2026-04-29 17:31 34.87043 33.61488 26 ft 48 kts 45°
2026-04-29 17:31 34.87354 33.61872 27 ft 48 kts 45°
2026-04-29 17:32 34.87477 33.62020 26 ft 21 kts 45°
2026-04-29 17:32 34.87502 33.62136 23 ft 7 kts 107°
2026-04-29 17:32 34.87553 33.62251 27 ft 29 kts 46°
2026-04-29 17:32 34.87662 33.62385 28 ft 39 kts 44°
2026-04-29 17:33 34.87857 33.62625 25 ft 40 kts 46°
2026-04-29 17:33 34.88028 33.62833 23 ft 41 kts 44°
2026-04-29 17:33 34.88263 33.63119 26 ft 50 kts 45°
2026-04-29 17:33 34.88435 33.63347 25 ft 18 kts 80°
2026-04-29 17:34 34.88389 33.63465 28 ft 15 kts 110°
2026-04-29 17:34 34.88337 33.63538 26 ft 8 kts 176°
2026-04-29 17:34 34.88284 33.63506 25 ft 11 kts 224°
2026-04-29 17:34 34.88048 33.63217 26 ft 86 kts 225°
2026-04-29 17:35 34.86929 33.61893 701 ft 149 kts 223°
2026-04-29 17:35 34.85910 33.60767 1871 ft 150 kts 225°
2026-04-29 17:35 34.85107 33.59873 2795 ft 162 kts 224°
2026-04-29 17:36 34.84242 33.58941 3728 ft 173 kts 224°
2026-04-29 17:36 34.83333 33.57775 4254 ft 206 kts 229°
2026-04-29 17:36 34.82246 33.56482 4826 ft 231 kts 213°
2026-04-29 17:36 34.80652 33.56025 5543 ft 247 kts 174°
2026-04-29 17:37 34.79067 33.56880 6426 ft 261 kts 141°
2026-04-29 17:37 34.77752 33.58469 7403 ft 271 kts 135°
2026-04-29 17:37 34.76425 33.60109 8514 ft 278 kts 136°
2026-04-29 17:37 34.74990 33.61723 9705 ft 284 kts 138°
2026-04-29 17:38 34.73462 33.63321 10605 ft 299 kts 140°
2026-04-29 17:38 34.71780 33.64997 11170 ft 323 kts 141°
2026-04-29 17:38 34.69978 33.66741 11995 ft 337 kts 141°
2026-04-29 17:38 34.68102 33.68512 12999 ft 344 kts 144°
2026-04-29 17:39 34.66005 33.69956 13990 ft 351 kts 158°
2026-04-29 17:39 34.63665 33.70926 14815 ft 360 kts 165°
2026-04-29 17:39 34.61206 33.71648 15746 ft 365 kts 169°
2026-04-29 17:39 34.58707 33.72207 16853 ft 366 kts 171°
2026-04-29 17:40 34.56169 33.72709 17713 ft 374 kts 172°
2026-04-29 17:40 34.53582 33.73201 18551 ft 381 kts 172°
2026-04-29 17:40 34.50932 33.73714 19255 ft 388 kts 172°
2026-04-29 17:40 34.48254 33.74250 20093 ft 391 kts 171°
2026-04-29 17:41 34.45561 33.74804 20918 ft 395 kts 171°
2026-04-29 17:41 34.42850 33.75374 21822 ft 395 kts 170°
2026-04-29 17:41 34.40156 33.75947 22584 ft 401 kts 170°
2026-04-29 17:41 34.37406 33.76533 23432 ft 402 kts 170°
2026-04-29 17:42 34.34621 33.77128 24036 ft 408 kts 171°
2026-04-29 17:42 34.31790 33.77733 24515 ft 416 kts 171°
2026-04-29 17:42 34.28926 33.78341 25131 ft 418 kts 171°
2026-04-29 17:42 34.26058 33.78950 25706 ft 419 kts 171°
2026-04-29 17:43 34.23184 33.79561 25974 ft 419 kts 171°
2026-04-29 17:43 34.20294 33.80174 26026 ft 425 kts 171°
2026-04-29 17:43 34.17355 33.80795 26029 ft 443 kts 171°
2026-04-29 17:43 34.14256 33.81448 26028 ft 460 kts 171°
2026-04-29 17:44 34.11046 33.82125 26030 ft 476 kts 171°
2026-04-29 17:44 34.07746 33.82822 26027 ft 486 kts 171°
2026-04-29 17:44 34.04399 33.83525 26026 ft 489 kts 172°
2026-04-29 17:44 34.01014 33.84066 26034 ft 489 kts 175°
2026-04-29 17:45 33.97621 33.84414 26036 ft 489 kts 177°
2026-04-29 17:45 33.94229 33.84661 26034 ft 489 kts 178°
2026-04-29 17:45 33.90833 33.84871 26034 ft 489 kts 178°
2026-04-29 17:45 33.87430 33.85078 26034 ft 489 kts 178°
2026-04-29 17:46 33.84036 33.85295 26036 ft 489 kts 178°
2026-04-29 17:46 33.80672 33.85528 26034 ft 489 kts 178°
2026-04-29 17:46 33.77276 33.85779 26037 ft 489 kts 178°
2026-04-29 17:46 33.73873 33.86040 26037 ft 489 kts 177°
2026-04-29 17:47 33.70471 33.86306 26035 ft 489 kts 177°
2026-04-29 17:47 33.67077 33.86574 26037 ft 489 kts 177°
2026-04-29 17:47 33.63671 33.86842 26037 ft 489 kts 177°
2026-04-29 17:47 33.60270 33.87108 26037 ft 489 kts 177°
2026-04-29 17:48 33.56872 33.87374 26034 ft 489 kts 178°
2026-04-29 17:48 33.53469 33.87639 26037 ft 490 kts 178°
2026-04-29 17:48 33.50075 33.87903 26037 ft 490 kts 178°
2026-04-29 17:48 33.46675 33.88167 26037 ft 490 kts 178°
2026-04-29 17:49 33.43271 33.88430 26037 ft 490 kts 178°
2026-04-29 17:49 33.39869 33.88694 26039 ft 490 kts 178°
2026-04-29 17:49 33.36470 33.88957 26040 ft 490 kts 178°
2026-04-29 17:49 33.33065 33.89220 26039 ft 490 kts 178°
2026-04-29 17:50 33.29711 33.89479 26039 ft 490 kts 178°
2026-04-29 17:50 33.26310 33.89742 26039 ft 489 kts 178°
2026-04-29 17:50 33.22912 33.90004 26040 ft 489 kts 178°
2026-04-29 17:50 33.19508 33.90265 26040 ft 489 kts 178°
2026-04-29 17:51 33.16110 33.90518 26038 ft 489 kts 178°
2026-04-29 17:51 33.12708 33.90769 26002 ft 489 kts 178°
2026-04-29 17:51 33.09349 33.91018 25423 ft 478 kts 178°
2026-04-29 17:51 33.06039 33.91262 24430 ft 475 kts 178°
2026-04-29 17:52 33.02747 33.91504 23471 ft 471 kts 177°
2026-04-29 17:52 33.00593 33.91663 22769 ft 468 kts 177°
2026-04-29 17:52 32.96283 33.91980 21466 ft 460 kts 178°
2026-04-29 17:52 32.93111 33.92214 20527 ft 453 kts 178°
2026-04-29 17:53 32.90021 33.92441 19574 ft 445 kts 178°
2026-04-29 17:53 32.86977 33.92666 18152 ft 432 kts 178°
2026-04-29 17:53 32.84002 33.92884 16427 ft 424 kts 178°
2026-04-29 17:53 32.81094 33.93097 14894 ft 413 kts 178°
2026-04-29 17:54 32.78245 33.93305 13544 ft 408 kts 177°
2026-04-29 17:54 32.75425 33.93512 12617 ft 402 kts 178°
2026-04-29 17:54 32.72661 33.93714 11745 ft 394 kts 177°
2026-04-29 17:54 32.69942 33.93912 10902 ft 387 kts 178°
2026-04-29 17:55 32.67250 33.94108 10340 ft 385 kts 178°
2026-04-29 17:55 32.64613 33.94301 10077 ft 384 kts 178°
2026-04-29 17:55 32.61951 33.94494 10022 ft 382 kts 178°
2026-04-29 17:55 32.59352 33.94684 10009 ft 360 kts 178°
2026-04-29 17:56 32.56957 33.94819 10014 ft 333 kts 180°
2026-04-29 17:56 32.54700 33.95213 10017 ft 327 kts 160°
2026-04-29 17:56 32.52843 33.96716 10027 ft 326 kts 132°
2026-04-29 17:56 32.51548 33.98920 10008 ft 327 kts 123°
2026-04-29 17:57 32.50312 34.01160 9588 ft 322 kts 126°
2026-04-29 17:57 32.48982 34.03286 8904 ft 319 kts 130°
2026-04-29 17:57 32.47599 34.05279 8232 ft 316 kts 131°
2026-04-29 17:57 32.46633 34.06596 7808 ft 313 kts 133°
2026-04-29 17:58 32.44717 34.09105 7175 ft 308 kts 134°
2026-04-29 17:58 32.43262 34.10960 7029 ft 307 kts 133°
2026-04-29 17:58 32.42013 34.12911 7000 ft 287 kts 126°
2026-04-29 17:58 32.40926 34.14817 7008 ft 275 kts 125°
2026-04-29 17:59 32.39860 34.16702 7009 ft 275 kts 125°
2026-04-29 17:59 32.38793 34.18584 7012 ft 276 kts 126°
2026-04-29 17:59 32.37720 34.20467 7014 ft 276 kts 125°
2026-04-29 17:59 32.36647 34.22345 7011 ft 275 kts 126°
2026-04-29 18:00 32.35572 34.24222 7012 ft 275 kts 126°
2026-04-29 18:00 32.34510 34.26073 7016 ft 276 kts 126°
2026-04-29 18:00 32.33432 34.27951 7016 ft 276 kts 126°
2026-04-29 18:00 32.32350 34.29836 7015 ft 276 kts 126°
2026-04-29 18:01 32.31270 34.31717 7015 ft 276 kts 126°
2026-04-29 18:01 32.30190 34.33594 7010 ft 276 kts 126°
2026-04-29 18:01 32.29114 34.35466 7007 ft 275 kts 126°
2026-04-29 18:01 32.28040 34.37335 6861 ft 274 kts 126°
2026-04-29 18:02 32.26973 34.39188 6356 ft 272 kts 125°
2026-04-29 18:02 32.25907 34.41039 5812 ft 272 kts 126°
2026-04-29 18:02 32.24842 34.42885 5310 ft 271 kts 125°
2026-04-29 18:02 32.23782 34.44724 5048 ft 270 kts 125°
2026-04-29 18:03 32.22718 34.46563 5004 ft 272 kts 125°
2026-04-29 18:03 32.21663 34.48382 5005 ft 272 kts 125°
2026-04-29 18:03 32.20587 34.50236 5007 ft 274 kts 125°
2026-04-29 18:03 32.19509 34.52092 5005 ft 274 kts 125°
2026-04-29 18:04 32.18430 34.53949 5006 ft 275 kts 125°
2026-04-29 18:04 32.17348 34.55811 5011 ft 275 kts 126°
2026-04-29 18:04 32.16289 34.57686 4703 ft 273 kts 123°
2026-04-29 18:04 32.15289 34.59590 4159 ft 273 kts 121°
2026-04-29 18:05 32.14322 34.61518 3650 ft 273 kts 120°
2026-04-29 18:05 32.13388 34.63419 3214 ft 270 kts 120°
2026-04-29 18:05 32.12429 34.65356 3021 ft 270 kts 121°
2026-04-29 18:05 32.11471 34.67243 3008 ft 272 kts 121°
2026-04-29 18:06 32.10492 34.69153 3020 ft 271 kts 121°
2026-04-29 18:06 32.09515 34.71052 3014 ft 271 kts 121°
2026-04-29 18:06 32.08536 34.72952 2868 ft 269 kts 121°
2026-04-29 18:06 32.07570 34.74823 2332 ft 264 kts 120°
2026-04-29 18:07 32.06620 34.76659 1987 ft 256 kts 120°
2026-04-29 18:07 32.05743 34.78340 1796 ft 220 kts 121°
2026-04-29 18:07 32.04992 34.79736 1606 ft 186 kts 120°
2026-04-29 18:07 32.04346 34.80961 1302 ft 170 kts 119°
2026-04-29 18:08 32.03757 34.82095 1095 ft 154 kts 118°
2026-04-29 18:08 32.03223 34.83135 882 ft 144 kts 119°
2026-04-29 18:08 32.02726 34.84126 644 ft 135 kts 118°
2026-04-29 18:08 32.02247 34.85078 530 ft 136 kts 118°
2026-04-29 18:09 32.01762 34.86014 296 ft 133 kts 121°
2026-04-29 18:09 32.01271 34.86938 147 ft 133 kts 120°